User: anonymous   Login
Location: Unspecified
(0.0000°N, 0.0000°E)
Time: 08:12:18
(UTC+00:00)
Language:

ALSAT 1N - Orbit

View from above orbital plane
View from above orbital plane
View from above satellite
View from above satellite

Ground track
Ground track

The orbit data is extracted from the following two-line orbital elements,

1 41789U 16059G   21340.89247267  .00000217  00000-0  49500-4 0  9997
2 41789  97.9476  28.9970 0029314  48.1896 312.1794 14.64493652277684
Epoch (UTC): 06 December 2021 21:25:09
Eccentricity: 0.0029314
inclination: 97.9476°
perigee height: 658 km
apogee height: 699 km
right ascension of ascending node: 28.9970°
argument of perigee: 48.1896°
revolutions per day: 14.64493652
mean anomaly at epoch: 312.1794°
orbit number at epoch: 27768

The dashed part of the orbit path shows where the satellite is in the earth's shadow,  

DLR